Tracking 22438 objects as of 24-Feb-2021
HD Live streaming from Space Station
objects crossing your sky now

BREEZE-M R/B

Track BREEZE-M R/B now!
10-day predictions


NORAD ID: 28944
Int'l Code: 2006-006B
Perigee: 1,054.9 km
Apogee: 14,817.5 km
Inclination: 50.7 °
Period: 283.9 minutes
Semi major axis: 14307 km
RCS: 13.6373 m2 (large)
Launch date: February 28, 2006
Source: Commonwealth of Independent States (former USSR) (CIS)
Launch site: TYURATAM MISSILE AND SPACE COMPLEX (TTMTR)

Note: This is a ROCKET BODY
aabbcc
Your satellite tracking list
Your tracking list is empty




NASA's NSSDC Master Catalog

Two Line Element Set (TLE):
1 28944U 06006B   21053.43208793  .00000044  00000-0  00000+0 0  9993
2 28944  50.6749 228.9290 4809677 239.5057 162.9774  5.07306499278639
Source of the keplerian elements: AFSPC